Temp
-2 -2 -2 -2 -2 -2 -2 -2 -2 -2 -2 -3 -3 -3 -4 -3 -4 -4 -4 -4 -4 -4 -5 -5 -5 -4 -4
-2 -2 -2 -2 -2 -2 -2 -3 -3 -3 -3 -3 -3 -3 -4 -4 -4 -4 -4 -5 -5 -5 -6 -6 -6 -6 -6
-2 -2 -2 -3 -3 -3 -3 -3 -3 -4 -5 -5 -5 -5 -5 -5 -6 -6 -6 -6 -6 -5 -6 -6 -6 -6 -6
-3 -3 -4 -4 -5 -5 -4 -5 -5 -6 -6 -6 -7 -7 -7 -7 -6 -6 -6 -6 -6 -7 -7 -7 -7 -7 -7
-5 -5 -5 -6 -7 -7 -7 -7 -7 -8 -7 -7 -8 -7 -7 -8 -8 -8 -8 -7 -8 -8 -8 -8 -8 -8 -8
-7 -7 -8 -9 -9 -10 -10 -10 -9 -10 -10 -9 -10 -9 -9 -9 -9 -9 -9 -9 -9 -9 -9 -8 -8 -8 -8
-9 -10 -10 -11 -11 -12 -12 -12 -11 -11 -12 -12 -12 -11 -11 -11 -11 -11 -10 -10 -10 -10 -10 -10 -9 -9 -9
-11 -11 -12 -12 -13 -13 -13 -13 -13 -12 -13 -13 -12 -12 -12 -12 -12 -12 -12 -12 -12 -12 -10 -10 -10 -10 -9
-12 -12 -13 -13 -14 -14 -14 -14 -14 -13 -13 -13 -13 -13 -13 -12 -12 -12 -13 -13 -13 -12 -12 -11 -10 -10 -10
-13 -13 -13 -14 -14 -15 -15 -14 -14 -14 -13 -14 -14 -14 -13 -13 -13 -13 -14 -14 -14 -14 -12 -11 -11 -10 -10
-13 -14 -14 -14 -14 -15 -15 -15 -14 -14 -13 -15 -14 -14 -14 -15 -14 -14 -14 -14 -14 -14 -13 -12 -12 -11 -11
-14 -14 -14 -14 -14 -14 -15 -14 -14 -14 -14 -15 -15 -14 -15 -15 -14 -14 -14 -15 -14 -14 -13 -13 -13 -13 -13
-15 -14 -14 -14 -14 -14 -14 -14 -14 -15 -15 -15 -15 -14 -15 -15 -14 -14 -14 -14 -14 -14 -14 -14 -14 -14 -13
-15 -15 -15 -15 -15 -15 -15 -15 -15 -15 -15 -15 -15 -15 -15 -15 -15 -14 -14 -14 -14 -14 -14 -14 -14 -14 -13
-15 -15 -15 -15 -15 -16 -16 -16 -15 -15 -14 -15 -15 -15 -15 -14 -14 -14 -14 -15 -15 -15 -15 -14 -14 -14 -13
-15 -16 -16 -16 -17 -17 -17 -16 -15 -15 -15 -15 -15 -15 -15 -15 -15 -15 -15 -15 -15 -15 -15 -14 -14 -14 -14
-17 -17 -17 -17 -17 -17 -16 -16 -15 -15 -15 -15 -15 -15 -15 -15 -15 -15 -15 -15 -15 -15 -15 -14 -14 -14 -14
Height
3019 3024 3022 3019 3016 3011 3007 3003 3000 2999 2997 2994 2991 2990 2988 2987 2986 2985 2984 2984 2984 2986 2987 2988 2989 2990 2991
3008 3006 3003 3003 3000 2997 2995 2991 2986 2983 2981 2978 2977 2975 2973 2971 2971 2971 2971 2971 2971 2972 2973 2975 2976 2977 2979
2997 2991 2986 2982 2980 2978 2976 2974 2971 2967 2964 2962 2961 2958 2956 2955 2954 2955 2956 2956 2957 2958 2959 2961 2963 2965 2967
2985 2979 2972 2968 2963 2958 2955 2953 2951 2950 2949 2946 2944 2943 2941 2938 2939 2939 2939 2940 2941 2943 2944 2946 2949 2951 2955
2969 2964 2959 2952 2947 2943 2937 2934 2932 2931 2928 2927 2925 2926 2927 2925 2923 2922 2923 2924 2924 2927 2928 2930 2933 2937 2941
2953 2946 2943 2936 2933 2928 2923 2918 2913 2915 2910 2909 2906 2905 2907 2907 2908 2905 2905 2905 2906 2908 2912 2915 2918 2921 2926
2938 2934 2928 2924 2918 2913 2909 2904 2901 2901 2896 2890 2893 2888 2890 2890 2889 2889 2889 2888 2889 2891 2895 2899 2902 2906 2911
2926 2920 2916 2911 2906 2900 2894 2889 2887 2888 2886 2876 2881 2875 2874 2873 2875 2875 2874 2872 2872 2875 2880 2882 2887 2891 2896
2911 2906 2902 2898 2894 2888 2884 2878 2875 2876 2877 2866 2868 2862 2860 2859 2860 2861 2859 2857 2857 2859 2863 2866 2872 2877 2881
2897 2893 2889 2885 2883 2878 2872 2868 2866 2863 2865 2856 2853 2850 2845 2847 2846 2846 2845 2844 2843 2846 2848 2851 2857 2862 2866
2884 2880 2876 2873 2870 2867 2864 2859 2856 2852 2853 2845 2841 2839 2835 2831 2831 2831 2831 2832 2831 2834 2835 2838 2842 2847 2853
2874 2870 2866 2863 2860 2857 2854 2850 2846 2841 2840 2836 2831 2829 2825 2822 2819 2819 2820 2822 2821 2822 2822 2826 2833 2838 2841
2865 2862 2858 2854 2851 2847 2844 2840 2835 2831 2828 2825 2822 2820 2816 2813 2811 2810 2810 2812 2812 2814 2815 2818 2824 2829 2834
2856 2853 2849 2845 2841 2838 2833 2829 2824 2822 2820 2817 2815 2812 2808 2806 2804 2803 2805 2805 2807 2808 2809 2812 2817 2822 2826
2849 2844 2841 2836 2832 2829 2824 2820 2817 2814 2812 2810 2807 2805 2803 2801 2799 2798 2799 2800 2803 2803 2805 2807 2811 2815 2819
2840 2835 2831 2827 2824 2820 2817 2814 2812 2809 2806 2803 2801 2799 2799 2798 2796 2795 2795 2796 2798 2799 2801 2803 2806 2810 2813
2831 2827 2824 2820 2817 2814 2812 2810 2808 2805 2802 2799 2797 2796 2795 2794 2793 2792 2792 2793 2794 2795 2797 2798 2802 2804 2805
Wind_Speed
52 45 45 45 45 47 49 51 51 51 50 50 49 49 48 48 47 47 47 47 46 45 44 43 42 42 41
56 56 55 52 51 51 50 51 52 53 53 54 54 54 54 53 52 51 50 50 49 48 47 46 44 42 41
57 57 57 57 55 53 52 52 52 52 52 53 54 55 56 55 54 53 52 51 51 49 48 47 46 44 42
56 56 57 56 56 56 57 54 53 51 50 49 48 48 50 54 56 57 56 53 51 50 50 49 47 45 44
56 57 57 57 57 57 59 58 57 53 54 53 51 48 46 45 48 51 54 55 54 51 50 50 48 46 46
57 58 58 56 55 54 54 55 58 52 49 49 46 48 46 41 40 44 47 52 53 53 50 50 49 48 46
55 55 56 54 53 53 51 50 50 48 46 47 41 43 41 38 35 35 42 48 52 52 47 49 50 48 46
51 51 50 49 49 49 49 49 48 44 41 46 40 44 43 41 35 34 36 43 49 49 48 44 47 46 45
49 47 44 42 41 43 44 45 45 42 38 46 43 45 41 41 41 38 37 37 47 47 49 46 44 42 44
46 43 40 37 34 35 38 40 40 41 36 42 40 37 39 37 39 37 33 31 38 46 42 42 43 41 40
42 39 37 33 31 31 34 36 38 39 37 38 38 36 38 40 39 35 30 30 31 35 27 36 39 42 39
36 34 33 31 31 31 32 35 37 39 36 37 37 35 38 40 37 36 28 29 22 23 25 30 34 33 33
34 33 32 31 31 33 34 36 38 39 36 31 30 34 33 35 40 37 24 23 17 21 22 24 29 35 35
33 33 33 34 35 35 37 36 36 29 23 25 29 27 27 31 28 24 25 21 14 24 18 20 29 31 29
36 36 36 35 33 31 30 27 24 23 25 24 22 19 22 23 18 19 16 9 16 20 17 19 22 24 26
36 34 32 29 29 28 25 22 21 22 24 20 17 16 20 18 14 13 11 11 14 19 18 19 21 23 26
30 26 25 25 27 27 22 18 19 19 19 17 16 17 18 17 14 12 12 12 16 18 18 20 21 24 26
Wind_Direction
296 292 288 284 281 279 279 279 279 278 276 275 274 273 271 269 266 264 263 263 263 262 263 263 263 263 263
295 295 294 290 287 284 281 280 278 277 275 274 273 273 272 270 268 266 264 262 261 260 260 260 261 261 260
292 291 292 292 289 287 284 280 278 277 276 274 271 270 268 268 268 267 266 264 263 262 260 259 259 259 258
289 290 290 291 290 290 288 286 283 281 279 277 275 271 269 267 266 265 264 263 261 258 259 257 256 255 256
292 291 291 291 292 293 293 292 290 290 288 286 283 279 274 271 269 266 264 261 258 256 254 255 254 253 253
296 296 295 295 295 294 294 294 293 292 292 289 287 285 286 281 272 266 261 257 256 253 252 251 250 250 249
296 296 295 295 293 293 293 290 290 291 293 293 292 290 289 285 284 274 262 256 252 251 243 250 248 246 248
293 293 291 291 289 289 289 290 290 291 291 290 291 291 291 289 287 287 280 256 249 247 239 244 247 244 246
297 296 295 291 286 284 284 284 287 289 289 288 290 291 284 281 285 286 281 269 251 248 238 244 241 241 242
302 301 299 296 289 283 284 285 289 292 294 295 295 293 288 285 285 283 279 263 253 251 249 242 237 232 236
305 304 303 300 293 287 286 288 291 293 298 297 295 293 289 291 294 288 275 271 254 249 253 245 236 231 229
305 304 302 300 296 293 292 292 294 295 296 293 289 289 290 294 289 284 284 276 260 262 256 230 235 230 233
303 302 301 301 298 298 297 298 297 297 295 291 289 290 291 287 286 285 284 265 269 279 256 227 219 231 231
307 307 305 303 301 303 302 301 299 299 298 297 293 289 289 288 286 274 276 248 274 285 244 226 224 233 235
304 304 303 302 303 303 304 304 302 305 304 302 288 289 279 272 273 267 242 257 284 270 253 234 233 234 235
304 302 302 303 305 307 308 304 303 309 312 309 298 288 278 274 294 285 262 248 248 263 256 240 237 241 244
306 304 301 303 309 305 302 300 307 312 317 312 301 296 286 279 287 287 259 244 246 251 250 246 243 243 245